FOLSOM LAKE (FOL)

Elevation: 466' · AMERICAN R basin · Operator: US Bureau of Reclamation

Provisional data, subject to change.
Query executed Monday at 3:00:35   clock

Select a sensor type for a plot of data.
Note: Reservoir Flows are daily averages.

Earlier

Date RES ELE    STORAGE    RES CHG    TOC STO    ABV TOC    OUTFLOW    INFLOW    EVAP    FNF    RIV REL    PPT INC    SPILL    DC PUMP    DIS PWR   
 FEET   AF   AF   AF   AF   CFS   CFS   CFS   CFS   CFS   INCHES   CFS   CFS   CFS  
08/24/2014 401.03 386291 -540 977000 -590709 1641 1419 50 39 e 0 0.00 0 179 1462
08/25/2014 400.88 385287 -1004 977000 -591713 1634 1178 50 39 e 0 0.00 0 178 1456
08/26/2014 400.65 383751 -1536 977000 -593249 1656 927 45 39 e 0 0.00 0 171 1485
08/27/2014 400.54 383016 -735 977000 -593984 1659 1333 45 39 e 0 0.00 0 173 1486
08/28/2014 400.48 382615 -401 977000 -594385 1721 1573 54 57 e 0 0.00 0 169 1552
08/29/2014 400.44 382348 -267 977000 -- 1707 1626 54 57 e 0 0.00 0 170 1537
08/30/2014 400.32 381547 -801 977000 -- 1623 1273 54 57 e 0 0.00 0 174 1449
08/31/2014 400.24 381013 -534 977000 -- 1689 1474 54 57 e 0 0.00 0 180 1509
09/01/2014 400.22 380879 -134 977000 -596121 1622 1606 52 57 e 0 0.00 0 174 1448
09/02/2014 400.33 381614 735 977000 -595386 1560 1983 52 57 e 0 0.00 0 178 1382
09/03/2014 400.24 381013 -601 977000 -595987 1540 1282 45 57 e 0 0.00 0 177 1363
09/04/2014 400.21 380812 -201 977000 -596188 1546 1490 45 56 e 0 0.00 0 168 1378
09/05/2014 400.01 379477 -1335 977000 -- 1582 949 40 16 e 0 0.00 0 166 1416
09/06/2014 399.90 378750 -727 977000 -- 1538 1211 40 16 e 0 0.00 0 169 1369
09/07/2014 399.70 377429 -1321 977000 -599571 1659 1040 47 16 e 0 0.00 0 175 1484
09/08/2014 399.51 376175 -1254 977000 -600825 1542 957 47 15 e 0 0.00 0 179 1363
09/09/2014 399.26 374525 -1650 977000 -602475 1562 777 47 15 e 0 0.00 0 170 1392
09/10/2014 398.94 372416 -2109 977000 -604584 1634 618 47 15 e 0 0.00 0 167 1467
09/11/2014 398.78 371371 -1045 977000 -605629 1433 952 46 -25 e 0 0.00 0 170 1263
09/12/2014 398.89 372089 718 977000 -- 1395 1810 53 -25 e 0 0.00 0 169 1226
09/13/2014 398.94 372416 327 977000 -- 1476 1694 53 -25 e 0 0.00 0 170 1306
09/14/2014 398.71 370914 -1502 977000 -- 1886 1182 53 -25 e 0 0.00 0 177 1709
09/15/2014 398.55 369869 -1045 977000 -607131 1562 1079 44 -- 0 0.00 0 177 1385
09/16/2014 398.25 367909 -1960 977000 -609091 1634 694 48 -- 0 0.00 0 173 1461
09/17/2014 397.94 365888 -2021 977000 -611112 1663 686 42 -- 0 0.00 0 164 1499
09/18/2014 397.65 364015 -1873 977000 -612985 1573 670 41 -- 0 0.00 0 157 1416
09/19/2014 397.35 362077 -1938 -- -- 1457 517 37 -- 0 0.00 0 151 1306
09/20/2014 397.06 360204 -1873 -- -- 1527 613 30 -- 0 0.00 0 152 1375
09/21/2014 -- -- -- -- -- -- -- -- -- -- -- -- -- --
09/22/2014 -- -- -- -- -- -- -- -- -- -- -- -- -- --

Later | Latest

Warning! This data is preliminary and subject to revision.

Download Data Now Download Data Now | Show FOL Map | Plot FOL Data | 1 Month FOL Data | Real-Time FOL Data | FOL Info